Astoria, OR

4:07 AM PDT on May 24, 2017 (GMT -0700)
Astoria Regional

Weather History for KAST - September, 2013

Change the Weather History Date:

Sunday, September 22, 2013

  Actual Average Record
Temperature  
Mean Temperature 60 °F 58 °F  
Max Temperature 64 °F 67 °F 92 °F (2009)
Min Temperature 56 °F 48 °F 39 °F (1956)
Degree Days  
Heating Degree Days 5 8  
Month to date heating degree days 68 132  
Since 1 July heating degree days 315 413  
Cooling Degree Days 0 0  
Month to date cooling degree days 3 0  
Year to date cooling degree days 9 7  
Growing Degree Days 9 (Base 50)    
Moisture  
Dew Point 54 °F    
Average Humidity 83    
Maximum Humidity 93    
Minimum Humidity 72    
Precipitation  
Precipitation 1.12 in 0.07 in 2.10 in (1892)
Month to date precipitation 2.34 1.41  
Year to date precipitation 38.69 39.51  
Snow  
Snow 0.00 in - - ()
Month to date snowfall 0.0  
Snow Depth 0.00 in    
Sea Level Pressure  
Sea Level Pressure 29.67 in    
Wind  
Wind Speed 13 mph (SSW)    
Max Wind Speed 26 mph    
Max Gust Speed 40 mph    
Visibility 6 miles    
Events Rain    
T = Trace of Precipitation, MM = Missing Value Source: NWS Daily Summary

Daily Weather History Graph

Daily Weather History Graph

Search for Another Location

Airport or City:

Trip Planner

Search our weather history database for the weather conditions in past years. The results will help you decide how hot, cold, wet, or windy it might be!

Date:

Astronomy

Sep. 22, 2013 Rise Set
Actual Time 7:02 AM PDT 7:12 PM PDT
Civil Twilight 6:32 AM PDT 7:42 PM PDT
Nautical Twilight 5:57 AM PDT 8:17 PM PDT
Astronomical Twilight 5:21 AM PDT 8:53 PM PDT
Moon 8:52 PM PDT (9/22) 10:42 AM PDT (9/22)
Length of Visible Light 13h 09m
Length of Day
12h 09m
Waning Gibbous, 88% of the Moon is Illuminated
Sep 22
Waning Gibbous
Sep 26
Last Quarter
Oct 4
New
Oct 11
First Quarter
Oct 18
Full

Hourly Weather History & Observations

Time (PDT) Temp. Dew Point Humidity Pressure Visibility Wind Dir Wind Speed Gust Speed Precip Events Conditions
12:55 AM 57.9 °F 55.0 °F 90% 29.74 in 4.0 mi South 4.6 mph - 0.07 in Rain Light Rain
1:55 AM 57.9 °F 55.0 °F 90% 29.73 in 10.0 mi South 8.1 mph - 0.06 in   Overcast
2:55 AM 57.9 °F 54.0 °F 87% 29.73 in 10.0 mi South 5.8 mph - N/A   Partly Cloudy
3:55 AM 57.0 °F 54.0 °F 89% 29.72 in 10.0 mi South 8.1 mph - N/A   Mostly Cloudy
4:48 AM 55.4 °F 53.6 °F 94% 29.72 in 2.5 mi SSW 10.4 mph - 0.07 in Rain Rain
4:55 AM 55.9 °F 54.0 °F 93% 29.71 in 1.5 mi SSW 11.5 mph 19.6 mph 0.24 in Rain Heavy Rain
4:59 AM 55.4 °F 53.6 °F 94% 29.71 in 2.0 mi SSW 10.4 mph 19.6 mph 0.03 in Rain Rain
5:07 AM 55.4 °F 53.6 °F 94% 29.71 in 7.0 mi South 9.2 mph - 0.04 in Rain Light Rain
5:55 AM 57.0 °F 53.1 °F 87% 29.70 in 8.0 mi South 12.7 mph 25.3 mph 0.15 in Rain Light Rain
6:55 AM 55.9 °F 54.0 °F 93% 29.69 in 7.0 mi South 9.2 mph - 0.05 in Rain Light Rain
7:55 AM 57.0 °F 54.0 °F 89% 29.68 in 4.0 mi South 12.7 mph 19.6 mph 0.02 in Rain Light Rain
8:44 AM 55.4 °F 53.6 °F 94% 29.65 in 6.0 mi South 15.0 mph 24.2 mph 0.02 in Rain Light Rain
8:55 AM 55.9 °F 53.1 °F 90% 29.65 in 6.0 mi South 15.0 mph 25.3 mph 0.02 in Rain Light Rain
9:12 AM 57.2 °F 53.6 °F 88% 29.64 in 10.0 mi South 13.8 mph 28.8 mph 0.00 in Rain Light Rain
9:55 AM 57.0 °F 54.0 °F 89% 29.62 in 3.0 mi South 23.0 mph 33.4 mph 0.02 in Rain Light Rain
10:34 AM 57.2 °F 53.6 °F 88% 29.60 in 2.5 mi South 20.7 mph 35.7 mph 0.01 in Rain Light Rain
10:37 AM 57.2 °F 53.6 °F 88% 29.60 in 3.0 mi South 18.4 mph 35.7 mph 0.01 in Rain Light Rain
10:48 AM 57.2 °F 53.6 °F 88% 29.59 in 6.0 mi South 20.7 mph 36.8 mph 0.02 in Rain Light Rain
10:55 AM 57.0 °F 54.0 °F 89% 29.59 in 4.0 mi South 20.7 mph 29.9 mph 0.02 in Rain Light Rain
11:06 AM 57.2 °F 53.6 °F 88% 29.58 in 1.8 mi South 20.7 mph 33.4 mph 0.02 in Rain Heavy Rain
11:17 AM 57.2 °F 53.6 °F 88% 29.57 in 3.0 mi South 20.7 mph 32.2 mph 0.06 in Rain Light Rain
11:51 AM 57.2 °F 53.6 °F 88% 29.57 in 1.8 mi South 15.0 mph 26.5 mph 0.17 in Rain Rain
11:55 AM 57.0 °F 54.0 °F 89% 29.56 in 1.5 mi South 12.7 mph 25.3 mph 0.19 in Rain Rain
12:12 PM 57.2 °F 55.4 °F 94% 29.56 in 2.5 mi South 25.3 mph 38.0 mph 0.04 in Rain Light Rain
12:21 PM 57.2 °F 55.4 °F 94% 29.59 in 1.2 mi SW 20.7 mph 40.3 mph 0.06 in Rain Light Rain
12:29 PM 57.2 °F 55.4 °F 94% 29.60 in 0.8 mi SW 25.3 mph 40.3 mph 0.13 in Rain Heavy Rain
12:41 PM 59.0 °F 57.2 °F 94% 29.59 in 1.8 mi SW 19.6 mph 33.4 mph 0.32 in Rain Light Rain
12:43 PM 59.0 °F 57.2 °F 94% 29.60 in 3.0 mi SSW 19.6 mph 32.2 mph 0.32 in Rain Light Rain
12:51 PM 60.8 °F 57.2 °F 88% 29.60 in 6.0 mi WSW 16.1 mph 25.3 mph 0.33 in Rain Light Rain
12:55 PM 60.1 °F 57.0 °F 90% 29.60 in 8.0 mi WSW 11.5 mph 24.2 mph 0.33 in Rain Light Rain
1:10 PM 60.8 °F 57.2 °F 88% 29.61 in 10.0 mi West 11.5 mph - 0.00 in   Overcast
1:55 PM 60.1 °F 57.0 °F 90% 29.63 in 6.0 mi SW 8.1 mph - 0.01 in Rain Light Rain
2:55 PM 63.0 °F 59.0 °F 87% 29.63 in 10.0 mi SSW 11.5 mph 18.4 mph 0.01 in   Overcast
3:55 PM 64.0 °F 55.9 °F 75% 29.65 in 10.0 mi WSW 13.8 mph - N/A   Overcast
4:55 PM 63.0 °F 53.1 °F 70% 29.68 in 10.0 mi SW 13.8 mph 21.9 mph N/A   Mostly Cloudy
5:55 PM 62.1 °F 55.0 °F 78% 29.70 in 10.0 mi SW 10.4 mph - N/A   Overcast
6:55 PM 61.0 °F 55.0 °F 81% 29.71 in 10.0 mi SW 9.2 mph - N/A   Overcast
7:55 PM 55.9 °F 53.1 °F 90% 29.74 in 10.0 mi SSW 4.6 mph - 0.09 in   Mostly Cloudy
8:55 PM 57.0 °F 55.0 °F 93% 29.76 in 5.0 mi SSW 5.8 mph - 0.02 in Rain Rain
9:12 PM 55.4 °F 53.6 °F 94% 29.77 in 4.0 mi SSW 9.2 mph - 0.05 in Rain Rain
9:55 PM 55.9 °F 53.1 °F 90% 29.78 in 10.0 mi South 5.8 mph - 0.07 in   Mostly Cloudy
10:44 PM 55.4 °F 53.6 °F 94% 29.78 in 10.0 mi South 5.8 mph - N/A   Mostly Cloudy
10:55 PM 57.0 °F 54.0 °F 89% 29.79 in 10.0 mi SW 12.7 mph 19.6 mph N/A   Overcast
11:55 PM 55.9 °F 53.1 °F 90% 29.80 in 10.0 mi South 5.8 mph - N/A   Mostly Cloudy